Location: Baia Mare
(47.6567°N, 23.5850°E)
Time: 22:08:57
(UTC+03:00)

ISS - Pass Details

Date: 22 September 2019
Orbit: 418 x 420 km, 51.6° (Epoch: 08 August)

Event Time Altitude Azimuth Distance (km) Brightness Sun altitude
Rises 22:21:15 0° 275° (W) 2,425 0.9 -28.7°
Reaches altitude 10° 22:23:27 10° 282° (WNW) 1,557 -0.1 -29.0°
Enters shadow 22:24:36 19° 291° (WNW) 1,130 -0.9 -29.1°
